STARLINK-34077, 64009

Orbit data source: Space-Track

STARLINK-34077, 64009 is a payload satellite owned by SpaceX/Seattle (US) in LEO that was launched on Wed, 14 May 2025 UTC via an FALCON 9 launch vehicle from the Air Force Eastern Test Range (AFETR). Payload-class satellites include a variety of spacecraft equipped with specific instruments for various scientific and technological missions. These include communications satellites like Starlink; space stations such as the ISS; scientific satellites like the Hubble; Earth observation satellites from companies like Planet Labs, Umbra, and HawkEye 360; GPS; miniature CubeSats for education and research; and military/defense satellites.

Loading next visibility...
Identifier
64009, 2025-101R
Orbit
LEO
Country
Flag of USUS
Related business
Manufacturer
SpaceX/Seattle
Mission
Operational Commercial Communications
Bus & Motor
STARLINK V2MO, Unknown motor
Mass
575 kg wet, ~530 kg dry
Launch date (UTC)
2025-05-14 (1 year ago)
Launch vehicle
FALCON 9
Launch site
Air Force Eastern Test Range (AFETR)
Object type
Payload
Rocket body
Debris
Shape & HBR
Box + 2 Pan, 17.7 m
Radar Cross Section
36.964 m², Large (>1 m²)

Expand to show TLE details & history
Last TLE update: 14 hours ago

TLE from 14 hours ago
0 STARLINK-34077
1 64009U 25101R   26171.25240573  .00014339  00000-0  52941-3 0  9997
2 64009  42.9990 138.5008 0001404 266.9063  93.1627 15.27589318 62746
Epoch: 2026-06-20T06:03Z
TLE epoch observation values (Epoch: 2026-06-20T06:03:27.855Z)
Latitude
-0.00007°
Longitude
139.16497°
Altitude
482.85 km
Speed
7.626 km/s
True Right ascension
09h 14m 00s
True Declination
0° 00' 00"
Sunlit
Object was in daylight at epoch
Visualization orbit readout
Latitude
Unknown
Longitude
Unknown
Altitude
Unknown
Speed
Unknown
Apparent Right ascension
Unknown
Apparent Declination
Unknown
Sunlit
N/A
Visualization observer readout
Local Sidereal Time
07:11:39
Azimuth
Unknown
Elevation
Unknown
Doppler factor
Unknown
Orbital elements
Apogee altitude
485.93 km
Perigee altitude
484.003 km
Semi-major axis
6,863.104 km
Eccentricity
0.00014
Inclination
42.999°
RAAN
138.5008°
Arg. of periapsis
266.9063°
True anomaly
93.17876°
Mean anomaly
93.1627°
Eccentric anomaly
93.17073°
Mean motion
3.81735 °/min
Orbital period
94.31 mins
BSTAR
0.00052941
Loading maneuver chart data...
Computing Atmospheric mass density...
Loading historical data...
Loading historical data...
Loading historical data...
Loading historical data...
Loading historical data...
Loading historical data...
Loading historical data...

Documentation

Showing up to 5 results
|